Regional Weather Roundup
Issued by NWS

Home | Current Version | Previous Version | Graphics & Text | Print | Product List | Glossary On
Versions: 1 2 3 4 5 6 7 8 9 10 11 12 13 14 15 16 17 18 19 20 21 22 23 24 25 26 27 28 29 30 31 32 33 34 35 36 37 38 39 40 41 42 43 44 45 46 47 48 49 50
000
ASUS45 KBOU 030007
RWRCO

WEATHER ROUNDUP FOR COLORADO
NATIONAL WEATHER SERVICE DENVER/BOULDER CO
600 PM MDT TUE JUN 02 2015

NOTE: "FAIR" INDICATES FEW OR NO CLOUDS BELOW 12000 FEET WITH NO
SIGNIFICANT WEATHER AND/OR OBSTRUCTIONS TO VISIBILITY.

COZ001>005-013-030-031-030100-
...NORTHWEST COLORADO...

CITY           SKY/WX    TMP DP  RH WIND       PRES   REMARKS
CRAIG          SUNNY     77  32  19 W13       29.99F
HAYDEN         SUNNY     75  28  17 W14G21    30.02S
MEEKER         SUNNY     80  25  13 SW13G22   30.01S
MOUNT WERNER   NOT AVBL
STEAMBOAT SPGS SUNNY     74  31  20 W12       30.04S
WALDEN         SUNNY     70  27  19 W13G20    30.13R
$$

COZ006>008-011-030100-
...WEST CENTRAL VALLEYS...

CITY           SKY/WX    TMP DP  RH WIND       PRES   REMARKS
GRAND JUNCTION SUNNY     85  15   7 NW14      29.89S
MONTROSE       SUNNY     83  16   8 SW15G24   30.00S
EAGLE          SUNNY     86  28  12 SW17G25   30.03S
RIFLE          SUNNY     82  30  15 W12       29.93F
DELTA          SUNNY     89  16   6 S13       29.94S
NUCLA          SUNNY     82  16   8 S20       30.04F
$$

COZ017>023-064>068-030100-
...SOUTHWEST COLORADO...

CITY           SKY/WX    TMP DP  RH WIND       PRES   REMARKS
DURANGO        SUNNY     79  20  11 W7        30.10F
CORTEZ         SUNNY     83  22  10 S9        30.04F
PAGOSA SPRINGS SUNNY     76  10   8 W10       30.18S
TELLURIDE      SUNNY     69  14  12 CALM      30.27S
WOLF CREEK PAS NOT AVBL
$$

COZ009-010-012-014-032>034-037-058>063-030100-
...CENTRAL COLORADO...

CITY           SKY/WX    TMP DP  RH WIND       PRES   REMARKS
ASPEN          SUNNY     74  21  13 S9G18     30.12S
BUENA VISTA    SUNNY     76  13   9 W12G22    30.11F
COPPER MTN     SUNNY     54  10  17 SW15G22   30.44R
BERTHOUD PASS  FAIR      45  37  76 W18G30    30.47S
COTTONWOOD PAS NOT AVBL
GUNNISON       SUNNY     73  19  13 W14       30.14S
KREMMLING      SUNNY     77  16  10 W13G21    30.08F
LEADVILLE      SUNNY     64  10  12 W12G24    30.27S
MONARCH PASS   SUNNY     54  23  30 W26G32    30.53F
SALIDA         MOSUNNY   82  23  11 W7        30.14S
SUNLIGHT       SUNNY     59  23  25 CALM      30.36S
WILKERSON PASS SUNNY     61  16  17 SW7       30.40R
$$

COZ069>075-030100-
...SAN LUIS VALLEY/SANGRE DE CRISTO MOUNTAINS...

CITY           SKY/WX    TMP DP  RH WIND       PRES   REMARKS
ALAMOSA        SUNNY     79  12   8 W16G24    30.10F
LA VETA PASS   SUNNY    N/A N/A N/A MISG      30.30S
SAGUACHE       SUNNY     79  27  14 W14       30.10F
$$

COZ035-036-038>040-030100-
...NORTHERN COLORADO FRONT RANGE...

CITY           SKY/WX    TMP DP  RH WIND       PRES   REMARKS
DENVER INTL AP MOSUNNY   83  43  24 E13       29.88F
DMNS CITY PARK   N/A     85  34  15 E8G17     29.86S
AURORA         MOSUNNY   82  45  27 NE14      29.89F
FRONT RANGE AP MOSUNNY   84  41  21 NE8       29.89F
ERIE MUNI ARPT SUNNY     87  31  13 E8        29.85F
BOULDER MUN AP SUNNY     86  37  17 NE8       29.87S
CENTENNIAL     MOSUNNY   86  23  10 NW12      29.90S
BROOMFIELD     MOSUNNY   86  36  16 MISG      29.90S
FORT COLLINS   SUNNY     84  46  26 S8        29.82F
LONGMONT       SUNNY     91  32  12 CALM      29.86F
$$

COZ041-046-047-076>085-087-088-030100-
...PIKES PEAK/PALMER DIVIDE AND SOUTHERN FOOTHILLS...

CITY           SKY/WX    TMP DP  RH WIND       PRES   REMARKS
COLO. SPRINGS  MOSUNNY   83  34  17 S18       29.95F
A. F. ACADEMY  MOSUNNY   80  33  18 SE15G22   29.96S
ELLICOTT       MOSUNNY  N/A N/A N/A S18       29.94F
FALCON         MOSUNNY   80  32  17 S15       30.02S
FORT CARSON    NOT AVBL
LIMON          SUNNY     82  44  26 SE7       29.90F
MONUMENT HILL  MOSUNNY   81  30  16 S8G16     30.02S
TRINIDAD       SUNNY     85  43  22 NE8       29.93F
$$

COZ042>045-048>051-090-091-030100-
...NORTHEAST COLORADO...

CITY           SKY/WX    TMP DP  RH WIND       PRES   REMARKS
GREELEY ARPT   SUNNY     86  48  26 S10       29.83F
AKRON          SUNNY     86  34  15 NE3       29.85F
BURLINGTON     SUNNY     87  52  29 SE13      29.83F
WRAY           SUNNY     87  59  38 E13       29.79F
STERLING       SUNNY     86  54  32 S5        29.79S
HOLYOKE        NOT AVBL
FORT MORGAN    SUNNY     87  39  18 CALM      29.84S
$$

COZ086-089-092>099-030100-
...SOUTHEAST COLORADO...

CITY           SKY/WX    TMP DP  RH WIND       PRES   REMARKS
PUEBLO         SUNNY     87  44  22 E13       29.84F
LA JUNTA       SUNNY     91  42  18 SE15      29.82F
LAMAR          SUNNY     92  46  20 SE8       29.78F
SPRINGFIELD      N/A     85  56  37 SE13      29.85F
$$



USA.gov is the U.S. government's official web portal to all federal, state and local government web resources and services.